User: anonymous   Login
Location: Laterina
(43.5167°N, 11.7167°E)
Time: 02:03:59
(UTC+00:00)
Language:

RS-44 - Orbit

View from above orbital plane
View from above orbital plane
View from above satellite
View from above satellite

Ground track
Ground track

The orbit data is extracted from the following two-line orbital elements,

1 44909U 19096E   21057.37351884 -.00000004  00000-0 -59713-4 0  9990
2 44909  82.5242 186.6046 0217150 353.1119   6.7009 12.79708537 54630
Epoch (UTC): 26 February 2021 08:57:52
Eccentricity: 0.0217150
inclination: 82.5242°
perigee height: 1175 km
apogee height: 1510 km
right ascension of ascending node: 186.6046°
argument of perigee: 353.1119°
revolutions per day: 12.79708537
mean anomaly at epoch: 6.7009°
orbit number at epoch: 5463

The dashed part of the orbit path shows where the satellite is in the earth's shadow,  

DLR